テンペル第2彗星

10P/Tempel 2 (2021)

English version
Home page
Updated on May 19, 2019

---------------------------------------------------------------------

・ プロフィール

・ 軌道要素

Epoch 2021 Mar. 7.0 TT = JDT 2459280.5
T 2021 Mar. 24.27835 TT                                 MPCW
q   1.4124792            (2000.0)            P               Q
n   0.18398430     Peri.  195.50699     +0.68082861     +0.70882520
a   3.0616030      Node   117.80970     -0.64786939     +0.70029937
e   0.5386472      Incl.   12.03967     -0.34166892     +0.08454369
P   5.36
From 3678 observations 1972 Feb. 10-2019 Mar. 7, mean residual 0".5.
     Nongravitational parameters A1 = +0.03, A2 = +0.0007.

・ 星図

・ 光度変化

        H = 13.6  G = 0.15              [    ,-155]  (              〜2020年10月20日)
        m1 =  4.6 + 5 logΔ + 35 log r  [-155,   0]  (2020年10月20日〜2021年 3月24日)
        m1 =  7.2 + 5 logΔ + 18 log r  [   0, 405]  (2021年 3月24日〜2022年 5月 3日)
        H = 13.6  G = 0.15              [ 405,    ]  (2022年 5月 3日〜              )

---------------------------------------------------------------------

軌道要素はM.P.E.C. 2019-J142に掲載されたものです。
星図はステラナビゲータ Ver.10 (アストロアーツ) で作成したものです。
光度グラフはComet for Windowsで作成したものです。

---------------------------------------------------------------------

Copyright(C) Seiichi Yoshida (comet@aerith.net). All rights reserved.